TimeEDT,TemperatureF,Dew PointF,Humidity,Sea Level PressureIn,VisibilityMPH,Wind Direction,Wind SpeedMPH,Gust SpeedMPH,PrecipitationIn,Events,Conditions,WindDirDegrees,DateUTC
12:53 AM,84.9,73.0,67,30.06,10.0,ESE,6.9,-,N/A,,Clear,110,2013-06-17 04:53:00
1:53 AM,84.9,73.0,67,30.05,10.0,ESE,5.8,-,N/A,,Clear,120,2013-06-17 05:53:00
2:53 AM,84.9,73.0,67,30.02,10.0,SE,8.1,17.3,N/A,,Clear,130,2013-06-17 06:53:00
3:53 AM,84.9,73.0,67,30.00,10.0,SE,8.1,-,N/A,,Partly Cloudy,130,2013-06-17 07:53:00
4:53 AM,84.0,73.0,69,30.00,10.0,ESE,5.8,-,N/A,,Partly Cloudy,120,2013-06-17 08:53:00
5:53 AM,84.9,73.9,69,30.01,10.0,ESE,5.8,-,N/A,,Scattered Clouds,110,2013-06-17 09:53:00
6:53 AM,84.9,73.9,69,30.01,10.0,ESE,5.8,-,N/A,,Mostly Cloudy,120,2013-06-17 10:53:00
7:15 AM,84.2,73.4,70,30.02,10.0,ESE,6.9,-,N/A,,Scattered Clouds,120,2013-06-17 11:15:00
7:53 AM,84.9,73.9,69,30.04,10.0,East,5.8,-,N/A,,Partly Cloudy,90,2013-06-17 11:53:00
8:30 AM,86.0,73.4,66,30.05,10.0,East,5.8,-,N/A,,Mostly Cloudy,80,2013-06-17 12:30:00
8:38 AM,86.0,73.4,66,30.05,10.0,ENE,6.9,-,N/A,,Partly Cloudy,70,2013-06-17 12:38:00
8:53 AM,86.0,73.9,67,30.05,10.0,East,6.9,-,N/A,,Partly Cloudy,80,2013-06-17 12:53:00
9:26 AM,87.8,75.2,66,30.05,10.0,East,6.9,-,N/A,,Mostly Cloudy,90,2013-06-17 13:26:00
9:53 AM,88.0,75.0,65,30.05,10.0,East,9.2,-,N/A,,Scattered Clouds,90,2013-06-17 13:53:00
10:53 AM,88.0,75.0,65,30.05,10.0,ESE,8.1,-,N/A,,Partly Cloudy,110,2013-06-17 14:53:00
11:53 AM,90.0,75.0,61,30.06,10.0,East,6.9,-,N/A,,Scattered Clouds,100,2013-06-17 15:53:00
12:53 PM,90.0,75.0,61,30.06,10.0,ESE,8.1,-,N/A,,Clear,120,2013-06-17 16:53:00
1:53 PM,88.0,75.0,65,30.05,10.0,East,9.2,-,N/A,,Mostly Cloudy,80,2013-06-17 17:53:00
2:08 PM,89.6,75.2,62,30.04,10.0,ESE,10.4,16.1,N/A,,Mostly Cloudy,110,2013-06-17 18:08:00
2:28 PM,89.6,75.2,62,30.05,10.0,ESE,6.9,-,N/A,,Scattered Clouds,110,2013-06-17 18:28:00
2:53 PM,91.0,75.0,59,30.04,10.0,ESE,8.1,-,N/A,,Partly Cloudy,110,2013-06-17 18:53:00
3:37 PM,89.6,75.2,62,30.03,9.0,ESE,9.2,18.4,0.00,Rain,Light Rain,110,2013-06-17 19:37:00
3:45 PM,89.6,75.2,62,30.03,9.0,East,9.2,-,0.00,Rain,Light Rain,90,2013-06-17 19:45:00
3:53 PM,90.0,75.9,63,30.03,10.0,East,6.9,17.3,0.00,,Scattered Clouds,90,2013-06-17 19:53:00
4:53 PM,89.1,75.9,65,30.02,10.0,East,8.1,17.3,N/A,,Scattered Clouds,100,2013-06-17 20:53:00
5:53 PM,89.1,75.0,63,30.02,10.0,ESE,9.2,16.1,N/A,,Partly Cloudy,120,2013-06-17 21:53:00
6:53 PM,88.0,75.0,65,30.02,10.0,East,9.2,-,N/A,,Partly Cloudy,90,2013-06-17 22:53:00
7:53 PM,86.0,73.9,67,30.03,10.0,East,8.1,-,N/A,,Partly Cloudy,100,2013-06-17 23:53:00
8:53 PM,86.0,75.0,70,30.03,10.0,ESE,9.2,-,N/A,,Partly Cloudy,110,2013-06-18 00:53:00
9:53 PM,86.0,73.9,67,30.04,10.0,ESE,8.1,-,N/A,,Clear,120,2013-06-18 01:53:00
10:53 PM,86.0,75.0,70,30.06,10.0,ESE,6.9,-,N/A,,Partly Cloudy,120,2013-06-18 02:53:00
11:53 PM,86.0,73.9,67,30.05,10.0,ESE,9.2,-,N/A,,Clear,110,2013-06-18 03:53:00